Location: Copeville
(33.0796°N, 96.4155°W)
Time: 11:27:43
(UTC+00:00)

Cosmos 1805 Rocket - Pass Details

Date: 10 July 2022
Orbit: 605 x 629 km, 82.5° (Epoch: 09 August)

Event Time Altitude Azimuth Distance (km) Brightness Sun altitude
Exits shadow 09:06:15 64° 293° (WNW) 684 3.6 -23.5°
Drops below altitude 10° 09:10:25 10° 360° (N) 1,980 6.8 -22.9°
Sets 09:12:39 0° 3° (N) 2,884 7.8 -22.6°
